Location: *
(40.7873°S, 98.7174°E)
Time: 09:27:22
(UTC+00:00)

USA 281 - Pass Details

Date: 24 May 2022
Orbit: 1070 x 1089 km, 106.0° (Epoch: 20 June)

Event Time Altitude Azimuth Distance (km) Brightness Sun altitude
Exits shadow 11:20:19 - 152° (SSE) 3,472 5.5 -13.1°
Reaches altitude 10° 11:21:46 10° 149° (SSE) 2,939 5.1 -13.4°
Maximum altitude 11:28:15 57° 70° (ENE) 1,261 3.3 -14.6°
Drops below altitude 10° 11:34:38 10° 353° (N) 2,900 5.7 -15.7°
Sets 11:37:11 0° 348° (NNW) 3,848 6.5 -16.2°
